Regional Weather Roundup
Issued by NWS

Home | Current Version | Previous Version | Text Only | Print | Product List | Glossary Off
Versions: 1 2 3 4 5 6 7 8 9 10 11 12 13 14 15 16 17 18 19 20 21 22 23 24 25 26 27 28 29 30 31 32 33 34 35 36 37 38 39 40 41 42 43 44 45 46 47 48 49 50

000
ASUS45 KPSR 050210
RWRAZ

ARIZONA HOURLY REGIONAL WEATHER ROUNDUP
NATIONAL WEATHER SERVICE PHOENIX AZ
700 PM MST THU FEB 04 2016

NOTE: FAIR INDICATES FEW OR NO CLOUDS BELOW 12,000 FEET WITH NO
SIGNIFICANT WEATHER AND/OR OBSTRUCTIONS TO VISIBILITY.

AZZ001>003-036-050300-
NORTHWEST ARIZONA

CITY           SKY/WX    TMP DP  RH WIND       PRES   REMARKS
BULLHEAD CITY  PTCLDY    55  19  24 N18G24    30.33R
KINGMAN        PTCLDY    39  19  44 E9        30.32S WCI  33
$$

AZZ004>008-015-016-018-050300-
NORTH CENTRAL ARIZONA

CITY           SKY/WX    TMP DP  RH WIND       PRES   REMARKS
GRAND CANYON   CLEAR     23  13  65 NE5       30.32R WCI  17
WILLIAMS       CLEAR     30  14  51 N6        30.35S WCI  24
PRESCOTT       CLEAR     38  17  42 N9        30.28R WCI  31
FLAGSTAFF      CLEAR     26  10  50 E3        30.30R
PAYSON         CLEAR     39  12  33 NE10      30.27R WCI  32
PAGE           CLEAR     32  20  61 NE5       30.38R WCI  27
$$

AZZ009>014-017-050300-
NORTHEAST ARIZONA

CITY           SKY/WX    TMP DP  RH WIND       PRES   REMARKS
WINSLOW        CLEAR     29  13  51 CALM      30.33S
SAINT JOHNS    PTCLDY    28  11  48 NW7       30.30R WCI  21
WINDOW ROCK    CLOUDY    26   0  32 CALM      30.30R
SHOW LOW       CLEAR     25   9  50 CALM      30.31R
$$

AZZ023-050300-
GREATER PHOENIX AREA

CITY           SKY/WX    TMP DP  RH WIND       PRES   REMARKS
PHOENIX        CLEAR     58  15  18 W6        30.21R
BUCKEYE        CLEAR     50  28  43 NE5       30.24S
GLENDALE       CLEAR     55  18  22 S3        30.23R
LUKE AFB       CLEAR     55  21  26 S5        30.21R
DEER VALLEY    CLEAR     55  14  19 NW3       30.21R
SCOTTSDALE     CLEAR     57  10  15 CALM      30.23R
MESA-FALCON    CLEAR    N/A N/A N/A W9        30.21S
MESA-GATEWAY   PTCLDY    54  16  22 NW8       30.22R
CHANDLER       CLEAR     57  10  15 VRB5      30.22R
$$

AZZ027-028-050300-
SOUTHWEST MARICOPA COUNTY AND PINAL COUNTY

CITY           SKY/WX    TMP DP  RH WIND       PRES   REMARKS
CASA GRANDE    CLEAR     52  12  20 NW6       30.22R
GILA BEND      FAIR      53  18  25 NE2       30.22R
$$

AZZ503-504-507>509-050300-
SOUTHEAST ARIZONA

CITY           SKY/WX    TMP DP  RH WIND       PRES   REMARKS
TUCSON         CLEAR     52  13  21 W7        30.20R
DAVIS-MONTHAN  CLEAR     51  14  22 W6        30.18R
RYAN FIELD     CLEAR     54  16  22 W8        30.21R
NOGALES        CLEAR     48   7  18 NE8       30.16R
SIERRA VISTA   PTCLDY    40   8  26 VRB1      30.22R
DOUGLAS        CLEAR     42   7  23 NE5       30.21R
SAFFORD        PTCLDY    41  12  30 N3        30.22R
$$

AZZ020-021-025-026-031-050300-
SOUTHWEST ARIZONA

CITY           SKY/WX    TMP DP  RH WIND       PRES   REMARKS
YUMA           PTCLDY    59  11  15 N9        30.26R
$$

CAZ031-033-041-043-047-048-061-050300-
SOUTHERN CALIFORNIA

CITY           SKY/WX    TMP DP  RH WIND       PRES   REMARKS
DOWNTOWN L.A.  MOCLDY    62  29  28 CALM      30.22R
L.A. AIRPORT   PTCLDY    59  47  64 W8        30.22S
SAN DIEGO      PTCLDY    62  40  44 N6        30.23R
BURBANK        PTCLDY    62  24  23 CALM      30.22R
ONTARIO        PTCLDY    64  24  21 CALM      30.21S
RIVERSIDE      MOCLDY    63  15  15 NE8       30.23R
PALM SPRINGS   PTCLDY    65  16  15 W6        30.30R
EL CENTRO NAS  PTCLDY    57  12  17 W5        30.30R
IMPERIAL       CLEAR     57  17  21 W3        30.27R
BLYTHE         CLEAR     57  11  16 NW8       30.28R
NEEDLES        CLEAR     56  17  21 N12       30.32R
$$

NVZ020-UTZ003-050300-
SOUTHERN NEVADA-UTAH

CITY           SKY/WX    TMP DP  RH WIND       PRES   REMARKS
LAS VEGAS      PTCLDY    51  16  24 CALM      30.33S
SALT LAKE CITY MOCLDY    28  21  75 S10       30.42F WCI  19
$$

NMZ009-TXZ055-050300-
NEW MEXICO-WEST TEXAS

CITY           SKY/WX    TMP DP  RH WIND       PRES   REMARKS
ALBUQUERQUE    CLOUDY    34   0  23 NW14      30.28R WCI  25
EL PASO        PTCLDY    42   2  18 N6        30.24R
$$


........................KEY........................
SKY/WX - SKY CONDITION/WEATHER
TMP    - TEMPERATURE IN FAHRENHEIT
DP     - DEW POINT IN FAHRENHEIT
RH     - RELATIVE HUMIDITY IN PERCENT
WIND   - DIRECTION AND SPEED IN MILES PER HOUR (MPH)
VRB    - VARIABLE WIND DIRECTION
PRES   - MEAN SEA LEVEL PRESSURE IN INCHES OF MERCURY
         F - FALLING PRESSURE   R - RISING PRESSURE
         S - STEADY PRESSURE
VSB    - VISIBILITY IN MILES
HX     - HEAT INDEX IN FAHRENHEIT
WCI    - WIND CHILL INDEX IN FAHRENHEIT
TC     - TEMPERATURE IN CELSIUS WHICH IS ALSO KNOWN AS
         TEMPERATURE IN CENTIGRADE
AFB    - AIR FORCE BASE
         LUKE AFB IS LUKE AIR FORCE BASE
         DAVIS-MONTHAN IS DAVIS-MONTHAN AIR FORCE BASE
NAS    - NAVAL AIR STATION
         EL CENTRO NAS IS EL CENTRO NAVAL AIR STATION
N/A    - NOT AVAILABLE




USA.gov is the U.S. government's official web portal to all federal, state and local government web resources and services.